SCP
0 0 0 0 0 0 0 0 0 0 0 0 0 0 0 0 0 0 0 0 0 0 0 0 0 0 0 0 0 0 0 0 0 0 0 0 0 0 0 0 0 0 0
0 0 0 0 0 0 0 0 0 0 0 0 0 0 0 0 0 0 0 0 0 0 0 0 0 0 0 0 0 0 0 0 0 0 0 0 0 0 0 0 0 0 0
0 0 0 0 0 0 0 0 0 0 0 0 0 0 0 0 0 0 0 0 0 0 0 0 0 0 0 0 0 0 0 0 0 0 0 0 0 0 0 0 0 0 0
0 0 0 0 0 0 0 0 0 0 0 0 0 0 0 0 0 0 0 0 0 0 0 0 0 0 0 0 0 0 0 0 0 0 0 0 0 0 0 0 0 0 0
0 0 0 0 0 0 0 0 0 0 0 0 0 0 0 0 0 0 0 0 0 0 0 0 0 0 0 0 0 0 0 0 0 0 0 0 0 0 0 0 0 0 0
0 0 0 0 0 0 0 0 0 0 0 0 0 0 0 0 0 0 0 0 0 0 0 0 0 0 0 0 0 0 0 0 0 0 0 0 0 0 0 0 0 0 0
0 0 0 0 0 0 0 0 0 0 0 0 0 0 0 0 0 0 0 0 0 0 0 0 0 0 0 0 0 0 0 0 0 0 0 0 0 0 0 0 0 0 0
0 0 0 0 0 0 0 0 0 0 0 0 0 0 0 0 0 0 0 0 0 0 0 0 0 0 0 0 0 0 0 0 0 0 0 0 0 0 0 0 0 0 0
0 0 0 0 0 0 0 0 0 0 0 0 0 0 0 0 0 0 0 0 0 0 0 0 0 0 0 0 0 0 0 0 0 0 0 0 0 0 0 0 0 0 0
0 0 0 0 0 0 0 0 0 0 0 0 0 0 0 0 0 0 0 0 0 0 0 0 0 0 0 0 0 0 0 0 0 0 0 0 0 0 0 0 0 0 0
0 0 0 0 0 0 0 0 0 0 0 0 0 0 0 0 0 0 0 0 0 0 0 0 0 0 0 0 0 0 0 0 0 0 0 0 0 0 0 0 0 0 0
0 0 0 0 0 0 0 0 0 0 0 0 0 0 0 0 0 0 0 0 0 0 0 0 0 0 0 0 0 0 0 0 0 0 0 0 0 0 0 0 0 0 0
0 0 0 0 0 0 0 0 0 0 0 0 0 0 0 0 0 0 0 0 0 0 0 0 0 0 0 0 0 0 0 0 0 0 0 0 0 0 0 0 0 0 0
0 0 0 0 0 0 0 0 0 0 0 0 0 0 0 0 0 0 0 0 0 0 0 0 0 0 0 0 0 0 0 0 0 0 0 0 0 0 0 0 0 0 0
0 0 0 0 0 0 0 0 0 0 0 0 0 0 0 0 0 0 0 0 0 0 0 0 0 0 0 0 0 0 0 0 0 0 0 0 0 0 0 0 0 0 0
0 0 0 0 0 0 0 0 0 0 0 0 0 0 0 0 0 0 0 0 0 0 0 0 0 0 0 0 0 0 0 0 0 0 0 0 0 0 0 0 0 0 0
0 0 0 0 0 0 0 0 0 0 0 0 0 0 0 0 0 0 0 0 0 0 0 0 0 0 0 0 0 0 0 0 0 0 0 0 0 0 0 0 0 0 0
0 0 0 0 0 0 0 0 0 0 0 0 0 0 0 0 0 0 0 0 0 0 0 0 0 0 0 0 0 0 0 0 0 0 0 0 0 0 0 0 0 0 0
0 0 0 0 0 0 0 0 0 0 0 0 0 0 0 0 0 0 0 0 0 0 0 0 0 0 0 0 0 0 0 0 0 0 0 0 0 0 0 0 0 0 0
0 0 0 0 0 0 0 0 0 0 0 0 0 0 0 0 0 0 0 0 0 0 0 0 0 0 0 0 0 0 0 0 0 0 0 0 0 0 0 0 0 0 0
0 0 0 0 0 0 0 0 0 0 0 0 0 0 0 0 0 0 0 0 0 0 0 0 0 0 0 0 0 0 0 0 0 0 0 0 0 0 0 0 0 0 -0
0 0 0 0 0 0 0 0 0 0 0 0 0 0 0 0 0 0 0 0 0 0 0 0 0 0 0 0 0 0 0 0 0 0 0 0 0 0 0 0 0 0 -0
0 0 0 0 0 0 0 0 0 0 0 0 0 0 0 0 0 0 0 0 0 0 0 0 0 0 0 0 0 0 0 0 0 0 0 0 0 0 0 0 0 0 0
0 0 0 0 0 0 0 0 0 0 0 0 0 0 0 0 0 0 0 0 0 0 0 0 0 0 0 0 0 0 0 0 0 0 0 0 0 0 0 0 0 0 -0
0 0 0 0 0 0 0 0 0 0 0 0 0 0 0 0 0 0 0 0 0 0 0 0 0 0 0 0 0 0 0 0 0 0 0 0 0 0 0 0 0 0 -0
0 0 0 0 0 0 0 0 0 0 0 0 0 0 0 0 0 0 0 0 0 0 0 0 0 0 0 0 0 0 0 0 0 0 0 0 0 0 0 0 0 0 0
Wind_Speed_500mb
49 45 41 38 35 32 29 26 23 21 19 18 17 17 16 16 16 15 17 14 14 14 16 13 19 25 28 34 36 39 42 46 48 51 53 55 59 62 63 63 66 72 73
51 47 43 40 38 34 31 28 25 23 21 19 17 18 17 17 17 15 16 15 14 14 14 23 22 27 28 36 41 43 46 50 52 55 58 59 60 64 70 71 70 68 68
52 48 46 42 39 36 32 30 27 24 21 19 18 19 19 18 18 16 17 18 15 15 23 21 26 25 35 40 46 46 48 51 54 57 61 64 64 62 61 65 69 65 60
54 52 48 44 41 37 34 30 27 24 22 20 20 19 20 18 18 18 18 18 18 24 24 24 22 33 38 45 46 45 48 52 56 60 62 64 65 65 53 53 55 56 58
58 54 50 46 42 39 35 32 28 25 23 21 20 19 21 20 21 19 20 19 20 24 24 20 32 36 40 41 43 42 44 47 49 52 55 59 62 61 57 52 53 58 60
60 57 51 49 44 41 37 34 30 27 25 21 19 19 22 23 22 21 20 19 19 23 21 30 36 42 44 41 38 38 41 40 44 47 51 56 58 58 57 50 51 55 60
62 59 56 51 46 42 37 35 31 28 26 22 18 18 19 19 22 22 21 20 23 21 26 34 37 40 45 43 39 38 38 43 48 53 57 60 59 57 52 52 53 53 57
70 67 59 54 48 45 41 36 33 30 26 23 18 16 10 14 24 26 30 22 24 29 32 35 38 44 44 42 41 42 46 50 55 58 61 64 66 64 59 57 56 57 58
71 60 59 56 51 46 41 37 34 31 28 26 22 17 11 10 12 18 30 26 24 29 35 35 38 44 42 43 43 46 49 53 59 62 64 67 70 71 69 64 60 61 63
71 71 67 59 53 50 43 40 36 34 31 28 24 25 24 17 12 8 17 21 24 32 37 34 37 41 40 41 44 45 51 56 62 65 68 70 73 77 78 71 67 67 68
82 78 68 62 58 52 45 42 39 36 32 30 28 27 26 23 21 22 17 22 32 30 39 39 37 35 38 41 46 47 54 58 62 66 68 72 75 81 82 76 72 72 72
89 79 72 69 61 55 48 43 40 37 34 31 30 29 27 21 20 22 22 29 34 36 43 38 33 35 36 42 46 51 56 59 64 66 71 75 79 79 81 79 78 78 77
94 90 82 76 69 58 50 46 43 37 34 33 32 31 28 25 25 23 24 27 30 40 42 46 36 34 39 43 51 57 58 58 62 66 75 79 79 80 80 82 78 79 80
98 89 87 80 69 61 55 48 44 39 37 36 35 33 30 29 28 26 26 24 25 25 43 40 46 44 49 53 58 62 64 62 69 73 79 78 78 77 76 77 76 77 79
97 93 89 80 74 66 58 52 48 43 40 37 36 35 33 33 30 29 29 29 26 15 32 33 36 50 56 65 65 62 65 64 69 74 77 78 76 76 75 74 74 75 74
94 95 91 84 77 71 65 59 53 49 44 40 40 38 37 36 33 32 32 32 33 32 32 43 49 57 63 66 60 62 63 60 72 75 75 75 70 68 68 75 75 72 72
90 93 91 85 80 75 72 65 60 53 49 45 43 41 40 40 37 36 35 35 36 38 50 61 60 65 68 65 66 65 59 64 74 73 73 64 60 67 64 67 69 67 65
87 87 86 85 85 79 75 72 66 60 54 51 46 45 44 44 40 39 38 37 39 43 50 60 64 67 68 61 64 66 63 63 72 71 66 55 59 64 64 64 57 55 57
85 86 84 84 83 81 80 76 69 62 57 54 50 49 46 47 44 41 38 39 41 45 49 59 67 68 69 63 67 67 69 68 70 72 58 53 63 56 63 64 58 51 52
83 84 81 80 81 82 81 77 72 65 61 60 54 53 50 50 46 42 40 40 42 44 49 56 65 70 67 64 65 74 79 75 75 64 57 66 60 48 63 63 60 51 53
76 80 81 81 82 81 80 79 74 68 66 62 60 56 53 51 48 44 42 42 42 44 49 56 62 67 66 66 68 72 77 83 81 68 72 62 54 57 65 66 66 55 52
67 75 80 79 79 79 80 78 72 72 69 67 64 59 55 53 51 48 44 42 42 43 48 52 57 60 57 60 64 67 70 81 87 68 75 56 54 55 58 60 63 55 45
55 66 73 75 78 79 79 76 74 73 72 70 66 61 58 56 53 50 46 44 42 42 45 50 54 51 52 52 56 62 63 65 69 70 65 62 58 51 45 54 56 52 45
51 59 65 72 76 77 77 75 73 71 74 73 69 62 59 57 55 51 49 44 41 42 43 46 48 46 43 45 47 54 60 61 62 49 51 52 62 62 31 49 62 51 49
44 51 57 61 67 73 75 74 72 75 78 76 71 66 62 61 57 54 50 44 43 42 41 43 45 40 37 39 44 48 52 57 61 49 37 55 56 58 30 43 62 54 48
35 44 51 56 60 64 67 70 71 75 79 79 76 69 67 65 58 56 51 45 44 42 41 40 39 34 32 35 38 43 48 47 44 29 37 51 46 49 27 41 55 57 55
Wind_Direction_500mb
215 216 215 218 220 220 221 223 226 227 231 235 240 250 256 259 263 264 272 272 274 279 289 294 301 301 303 303 305 305 301 300 299 297 293 289 285 283 279 276 272 267 262
215 216 218 218 219 219 220 222 222 225 229 234 240 249 251 256 259 261 270 267 265 271 282 298 296 298 301 304 303 303 304 303 300 297 296 293 287 282 280 278 274 270 269
215 218 219 217 218 218 218 220 222 224 230 234 239 244 247 247 253 260 258 262 256 263 297 292 294 295 303 304 306 307 305 302 302 302 300 299 297 292 286 280 280 275 272
216 217 218 216 217 217 218 220 222 225 226 229 237 241 249 248 253 258 254 252 259 292 293 294 291 303 307 308 310 310 309 308 307 306 306 306 303 302 302 296 289 288 285
216 217 217 217 215 215 218 220 222 226 227 227 232 241 248 249 256 248 245 249 272 286 295 291 305 305 310 314 315 316 314 312 311 310 308 305 304 303 301 299 295 291 286
216 218 217 217 216 216 216 221 220 221 228 229 228 242 247 254 246 237 233 261 279 293 289 304 310 315 317 321 321 318 315 315 314 313 313 313 310 306 305 304 298 292 290
217 217 218 218 216 219 219 218 221 219 223 223 225 233 251 240 235 223 220 280 289 292 299 308 313 314 317 320 321 319 320 320 322 323 321 317 313 311 307 305 303 299 292
217 216 216 218 218 220 219 219 218 219 220 220 216 220 235 233 233 234 223 279 283 302 307 314 318 317 318 318 320 322 324 326 323 322 318 315 314 310 305 302 301 300 297
215 216 218 218 219 221 222 220 218 219 219 218 216 213 203 203 214 236 245 271 283 302 309 318 319 317 315 316 319 321 322 320 318 317 312 310 307 303 300 298 298 296 294
215 215 218 218 218 220 219 220 219 220 219 221 219 225 231 228 206 250 253 267 290 306 309 320 318 316 310 311 313 314 317 316 316 315 311 307 304 301 299 297 294 291 290
214 215 215 217 219 220 218 219 220 221 221 223 224 228 230 235 241 246 269 276 298 305 310 319 319 312 309 308 308 310 313 313 315 315 314 310 304 300 298 295 291 288 286
214 214 214 217 218 219 218 218 219 221 223 226 230 230 234 237 245 247 266 289 302 311 313 318 320 320 313 306 302 306 309 313 315 314 313 312 308 303 298 295 291 288 286
213 213 214 215 217 218 216 217 220 222 227 230 231 234 238 245 251 259 266 279 294 309 315 318 321 322 321 309 304 306 309 310 312 314 315 315 310 305 299 296 293 289 285
217 215 216 216 217 217 216 217 222 224 229 231 234 236 242 247 253 263 272 275 288 297 310 315 316 320 321 318 311 313 309 312 311 317 319 318 309 304 300 297 296 292 286
220 219 219 217 216 216 217 220 223 228 233 235 237 240 244 248 255 266 275 280 282 286 295 305 301 312 315 318 315 313 310 314 317 321 324 317 313 307 302 300 296 296 290
223 221 219 218 218 218 218 222 225 229 234 238 240 243 244 249 256 263 274 283 287 283 278 300 303 301 306 316 319 322 315 318 323 328 324 322 316 312 308 302 297 301 292
223 223 222 220 220 220 221 224 228 232 236 240 242 244 245 249 254 262 272 282 289 289 288 303 309 312 315 322 325 325 323 326 326 329 327 323 321 322 312 313 311 301 295
225 224 223 221 222 223 225 227 229 233 237 242 245 245 245 249 252 260 270 281 290 295 295 302 313 316 319 326 327 329 328 327 327 334 326 327 326 328 331 327 317 313 304
226 223 222 223 224 225 227 228 232 237 240 244 246 247 247 248 251 257 268 280 289 296 301 304 311 317 321 332 330 330 328 331 332 337 326 336 335 333 339 342 330 318 309
226 223 223 224 225 228 228 231 234 237 242 244 247 249 248 249 252 257 265 276 286 296 302 308 313 317 324 333 329 328 330 335 335 339 335 344 336 338 341 342 335 323 310
228 225 225 225 227 229 230 233 235 239 242 244 246 249 250 250 252 255 263 275 286 297 305 310 312 317 326 331 329 331 331 332 335 342 337 344 337 343 343 345 340 329 312
227 226 226 229 230 231 233 235 237 241 243 244 248 250 250 249 249 252 259 270 283 296 303 308 312 316 325 326 327 331 333 335 337 344 334 347 346 349 341 345 342 330 323
229 230 231 232 234 234 236 238 239 241 244 247 249 249 249 248 248 251 258 267 280 293 302 308 312 317 319 326 327 328 332 332 332 336 337 338 348 346 343 352 348 342 332
226 229 231 234 236 237 239 239 240 242 245 246 248 248 249 248 248 250 256 266 278 290 300 304 309 317 320 323 327 326 328 329 334 342 332 331 348 348 358 359 4 355 352
233 234 235 237 238 238 240 241 240 240 242 244 245 245 245 245 244 247 253 264 275 286 296 303 310 317 323 323 325 327 329 333 338 344 342 341 346 347 2 3 6 15 11
249 242 240 239 240 243 243 242 241 241 242 243 243 243 243 243 242 245 250 259 270 284 293 301 307 314 320 321 327 330 332 336 339 345 336 343 354 1 343 356 3 16 26
Wind_Speed_850mb
49 45 41 38 35 32 29 26 23 21 19 18 17 17 16 16 16 15 17 14 14 14 16 13 19 25 28 34 36 39 42 46 48 51 53 55 59 62 63 63 66 72 73
51 47 43 40 38 34 31 28 25 23 21 19 17 18 17 17 17 15 16 15 14 14 14 23 22 27 28 36 41 43 46 50 52 55 58 59 60 64 70 71 70 68 68
52 48 46 42 39 36 32 30 27 24 21 19 18 19 19 18 18 16 17 18 15 15 23 21 26 25 35 40 46 46 48 51 54 57 61 64 64 62 61 65 69 65 60
54 52 48 44 41 37 34 30 27 24 22 20 20 19 20 18 18 18 18 18 18 24 24 24 22 33 38 45 46 45 48 52 56 60 62 64 65 65 53 53 55 56 58
58 54 50 46 42 39 35 32 28 25 23 21 20 19 21 20 21 19 20 19 20 24 24 20 32 36 40 41 43 42 44 47 49 52 55 59 62 61 57 52 53 58 60
60 57 51 49 44 41 37 34 30 27 25 21 19 19 22 23 22 21 20 19 19 23 21 30 36 42 44 41 38 38 41 40 44 47 51 56 58 58 57 50 51 55 60
62 59 56 51 46 42 37 35 31 28 26 22 18 18 19 19 22 22 21 20 23 21 26 34 37 40 45 43 39 38 38 43 48 53 57 60 59 57 52 52 53 53 57
70 67 59 54 48 45 41 36 33 30 26 23 18 16 10 14 24 26 30 22 24 29 32 35 38 44 44 42 41 42 46 50 55 58 61 64 66 64 59 57 56 57 58
71 60 59 56 51 46 41 37 34 31 28 26 22 17 11 10 12 18 30 26 24 29 35 35 38 44 42 43 43 46 49 53 59 62 64 67 70 71 69 64 60 61 63
71 71 67 59 53 50 43 40 36 34 31 28 24 25 24 17 12 8 17 21 24 32 37 34 37 41 40 41 44 45 51 56 62 65 68 70 73 77 78 71 67 67 68
82 78 68 62 58 52 45 42 39 36 32 30 28 27 26 23 21 22 17 22 32 30 39 39 37 35 38 41 46 47 54 58 62 66 68 72 75 81 82 76 72 72 72
89 79 72 69 61 55 48 43 40 37 34 31 30 29 27 21 20 22 22 29 34 36 43 38 33 35 36 42 46 51 56 59 64 66 71 75 79 79 81 79 78 78 77
94 90 82 76 69 58 50 46 43 37 34 33 32 31 28 25 25 23 24 27 30 40 42 46 36 34 39 43 51 57 58 58 62 66 75 79 79 80 80 82 78 79 80
98 89 87 80 69 61 55 48 44 39 37 36 35 33 30 29 28 26 26 24 25 25 43 40 46 44 49 53 58 62 64 62 69 73 79 78 78 77 76 77 76 77 79
97 93 89 80 74 66 58 52 48 43 40 37 36 35 33 33 30 29 29 29 26 15 32 33 36 50 56 65 65 62 65 64 69 74 77 78 76 76 75 74 74 75 74
94 95 91 84 77 71 65 59 53 49 44 40 40 38 37 36 33 32 32 32 33 32 32 43 49 57 63 66 60 62 63 60 72 75 75 75 70 68 68 75 75 72 72
90 93 91 85 80 75 72 65 60 53 49 45 43 41 40 40 37 36 35 35 36 38 50 61 60 65 68 65 66 65 59 64 74 73 73 64 60 67 64 67 69 67 65
87 87 86 85 85 79 75 72 66 60 54 51 46 45 44 44 40 39 38 37 39 43 50 60 64 67 68 61 64 66 63 63 72 71 66 55 59 64 64 64 57 55 57
85 86 84 84 83 81 80 76 69 62 57 54 50 49 46 47 44 41 38 39 41 45 49 59 67 68 69 63 67 67 69 68 70 72 58 53 63 56 63 64 58 51 52
83 84 81 80 81 82 81 77 72 65 61 60 54 53 50 50 46 42 40 40 42 44 49 56 65 70 67 64 65 74 79 75 75 64 57 66 60 48 63 63 60 51 53
76 80 81 81 82 81 80 79 74 68 66 62 60 56 53 51 48 44 42 42 42 44 49 56 62 67 66 66 68 72 77 83 81 68 72 62 54 57 65 66 66 55 52
67 75 80 79 79 79 80 78 72 72 69 67 64 59 55 53 51 48 44 42 42 43 48 52 57 60 57 60 64 67 70 81 87 68 75 56 54 55 58 60 63 55 45
55 66 73 75 78 79 79 76 74 73 72 70 66 61 58 56 53 50 46 44 42 42 45 50 54 51 52 52 56 62 63 65 69 70 65 62 58 51 45 54 56 52 45
51 59 65 72 76 77 77 75 73 71 74 73 69 62 59 57 55 51 49 44 41 42 43 46 48 46 43 45 47 54 60 61 62 49 51 52 62 62 31 49 62 51 49
44 51 57 61 67 73 75 74 72 75 78 76 71 66 62 61 57 54 50 44 43 42 41 43 45 40 37 39 44 48 52 57 61 49 37 55 56 58 30 43 62 54 48
35 44 51 56 60 64 67 70 71 75 79 79 76 69 67 65 58 56 51 45 44 42 41 40 39 34 32 35 38 43 48 47 44 29 37 51 46 49 27 41 55 57 55
Wind_Direction_850mb
215 216 215 218 220 220 221 223 226 227 231 235 240 250 256 259 263 264 272 272 274 279 289 294 301 301 303 303 305 305 301 300 299 297 293 289 285 283 279 276 272 267 262
215 216 218 218 219 219 220 222 222 225 229 234 240 249 251 256 259 261 270 267 265 271 282 298 296 298 301 304 303 303 304 303 300 297 296 293 287 282 280 278 274 270 269
215 218 219 217 218 218 218 220 222 224 230 234 239 244 247 247 253 260 258 262 256 263 297 292 294 295 303 304 306 307 305 302 302 302 300 299 297 292 286 280 280 275 272
216 217 218 216 217 217 218 220 222 225 226 229 237 241 249 248 253 258 254 252 259 292 293 294 291 303 307 308 310 310 309 308 307 306 306 306 303 302 302 296 289 288 285
216 217 217 217 215 215 218 220 222 226 227 227 232 241 248 249 256 248 245 249 272 286 295 291 305 305 310 314 315 316 314 312 311 310 308 305 304 303 301 299 295 291 286
216 218 217 217 216 216 216 221 220 221 228 229 228 242 247 254 246 237 233 261 279 293 289 304 310 315 317 321 321 318 315 315 314 313 313 313 310 306 305 304 298 292 290
217 217 218 218 216 219 219 218 221 219 223 223 225 233 251 240 235 223 220 280 289 292 299 308 313 314 317 320 321 319 320 320 322 323 321 317 313 311 307 305 303 299 292
217 216 216 218 218 220 219 219 218 219 220 220 216 220 235 233 233 234 223 279 283 302 307 314 318 317 318 318 320 322 324 326 323 322 318 315 314 310 305 302 301 300 297
215 216 218 218 219 221 222 220 218 219 219 218 216 213 203 203 214 236 245 271 283 302 309 318 319 317 315 316 319 321 322 320 318 317 312 310 307 303 300 298 298 296 294
215 215 218 218 218 220 219 220 219 220 219 221 219 225 231 228 206 250 253 267 290 306 309 320 318 316 310 311 313 314 317 316 316 315 311 307 304 301 299 297 294 291 290
214 215 215 217 219 220 218 219 220 221 221 223 224 228 230 235 241 246 269 276 298 305 310 319 319 312 309 308 308 310 313 313 315 315 314 310 304 300 298 295 291 288 286
214 214 214 217 218 219 218 218 219 221 223 226 230 230 234 237 245 247 266 289 302 311 313 318 320 320 313 306 302 306 309 313 315 314 313 312 308 303 298 295 291 288 286
213 213 214 215 217 218 216 217 220 222 227 230 231 234 238 245 251 259 266 279 294 309 315 318 321 322 321 309 304 306 309 310 312 314 315 315 310 305 299 296 293 289 285
217 215 216 216 217 217 216 217 222 224 229 231 234 236 242 247 253 263 272 275 288 297 310 315 316 320 321 318 311 313 309 312 311 317 319 318 309 304 300 297 296 292 286
220 219 219 217 216 216 217 220 223 228 233 235 237 240 244 248 255 266 275 280 282 286 295 305 301 312 315 318 315 313 310 314 317 321 324 317 313 307 302 300 296 296 290
223 221 219 218 218 218 218 222 225 229 234 238 240 243 244 249 256 263 274 283 287 283 278 300 303 301 306 316 319 322 315 318 323 328 324 322 316 312 308 302 297 301 292
223 223 222 220 220 220 221 224 228 232 236 240 242 244 245 249 254 262 272 282 289 289 288 303 309 312 315 322 325 325 323 326 326 329 327 323 321 322 312 313 311 301 295
225 224 223 221 222 223 225 227 229 233 237 242 245 245 245 249 252 260 270 281 290 295 295 302 313 316 319 326 327 329 328 327 327 334 326 327 326 328 331 327 317 313 304
226 223 222 223 224 225 227 228 232 237 240 244 246 247 247 248 251 257 268 280 289 296 301 304 311 317 321 332 330 330 328 331 332 337 326 336 335 333 339 342 330 318 309
226 223 223 224 225 228 228 231 234 237 242 244 247 249 248 249 252 257 265 276 286 296 302 308 313 317 324 333 329 328 330 335 335 339 335 344 336 338 341 342 335 323 310
228 225 225 225 227 229 230 233 235 239 242 244 246 249 250 250 252 255 263 275 286 297 305 310 312 317 326 331 329 331 331 332 335 342 337 344 337 343 343 345 340 329 312
227 226 226 229 230 231 233 235 237 241 243 244 248 250 250 249 249 252 259 270 283 296 303 308 312 316 325 326 327 331 333 335 337 344 334 347 346 349 341 345 342 330 323
229 230 231 232 234 234 236 238 239 241 244 247 249 249 249 248 248 251 258 267 280 293 302 308 312 317 319 326 327 328 332 332 332 336 337 338 348 346 343 352 348 342 332
226 229 231 234 236 237 239 239 240 242 245 246 248 248 249 248 248 250 256 266 278 290 300 304 309 317 320 323 327 326 328 329 334 342 332 331 348 348 358 359 4 355 352
233 234 235 237 238 238 240 241 240 240 242 244 245 245 245 245 244 247 253 264 275 286 296 303 310 317 323 323 325 327 329 333 338 344 342 341 346 347 2 3 6 15 11
249 242 240 239 240 243 243 242 241 241 242 243 243 243 243 243 242 245 250 259 270 284 293 301 307 314 320 321 327 330 332 336 339 345 336 343 354 1 343 356 3 16 26